Tracking 30923 objects as of 1-Jul-2025
HD Live streaming from Space Station
objects crossing your sky now

STARLINK-5326

Track STARLINK-5326 now!
10-day predictions
STARLINK-5326 is classified as:


NORAD ID: 55656
Int'l Code: 2023-021AE
Perigee: 577.1 km
Apogee: 581.3 km
Inclination: 70.0 °
Period: 96.1 minutes
Semi major axis: 6950 km
RCS: Unknown
Launch date: February 17, 2023
Source: United States (US)
Launch site: AIR FORCE WESTERN TEST RANGE (AFWTR)
Your satellite tracking list
Your tracking list is empty




NASA's NSSDC Master Catalog

Two Line Element Set (TLE):
1 55656U 23021AE  25181.92118550  .00000155  00000-0  20793-4 0  9999
2 55656  69.9997  99.0625 0003013 269.1945  90.8869 14.98330182131084
Source of the keplerian elements: AFSPC